UAL408 KEWR-KPWM

Flight info

Callsign UAL408
Flight time 0h 45m
Altitude 33000
Route GREKI JUDDS CAM CDOGG4
Aircraft B752/M-SDE2E3FGHIJ3J4J7RWXY/LB1

Departure

Time 2026-05-05 17:59
Airport Newark Liberty International Airport (KEWR)

Arrival

Time 2026-05-05 18:45
Airport Portland International Jetport (KPWM)
Time Latitude Longitude Altitude Speed Heading
2026-05-05 17:37 40.69474 -74.17269 22 ft 0 kts 236°
2026-05-05 17:51 40.69481 -74.17255 22 ft 2 kts 239°
2026-05-05 17:51 40.69487 -74.17238 22 ft 2 kts 257°
2026-05-05 17:51 40.69489 -74.17219 22 ft 2 kts 271°
2026-05-05 17:52 40.69487 -74.17199 22 ft 2 kts 286°
2026-05-05 17:52 40.69481 -74.17181 22 ft 2 kts 301°
2026-05-05 17:52 40.69472 -74.17165 22 ft 2 kts 315°
2026-05-05 17:52 40.69465 -74.17157 22 ft 1 kts 326°
2026-05-05 17:53 40.69473 -74.17165 22 ft 4 kts 324°
2026-05-05 17:53 40.69494 -74.17182 22 ft 2 kts 343°
2026-05-05 17:53 40.69509 -74.17174 22 ft 2 kts 51°
2026-05-05 17:53 40.69513 -74.17158 22 ft 1 kts 83°
2026-05-05 17:54 40.69513 -74.17155 22 ft 0 kts 83°
2026-05-05 17:55 40.69514 -74.17143 22 ft 6 kts 83°
2026-05-05 17:56 40.69520 -74.17088 22 ft 5 kts 79°
2026-05-05 17:56 40.69529 -74.16999 22 ft 13 kts 96°
2026-05-05 17:56 40.69504 -74.16888 22 ft 11 kts 85°
2026-05-05 17:56 40.69555 -74.16830 22 ft 9 kts 24°
2026-05-05 17:57 40.69626 -74.16787 22 ft 15 kts 26°
2026-05-05 17:57 40.69736 -74.16715 22 ft 18 kts 26°
2026-05-05 17:57 40.69848 -74.16645 22 ft 17 kts 26°
2026-05-05 17:57 40.69946 -74.16582 22 ft 14 kts 26°
2026-05-05 17:58 40.69969 -74.16567 22 ft 2 kts 26°
2026-05-05 17:58 40.70015 -74.16536 22 ft 15 kts 28°
2026-05-05 17:58 40.70056 -74.16412 22 ft 16 kts 118°
2026-05-05 17:58 40.69964 -74.16407 22 ft 17 kts 202°
2026-05-05 17:59 40.69670 -74.16608 22 ft 90 kts 204°
2026-05-05 17:59 40.68868 -74.17117 141 ft 158 kts 208°
2026-05-05 17:59 40.67757 -74.17712 827 ft 188 kts 191°
2026-05-05 17:59 40.66512 -74.17886 1918 ft 177 kts 188°
2026-05-05 18:00 40.65305 -74.18233 2350 ft 183 kts 208°
2026-05-05 18:00 40.64133 -74.19049 2515 ft 204 kts 210°
2026-05-05 18:00 40.62740 -74.19601 2439 ft 216 kts 181°
2026-05-05 18:00 40.61262 -74.18973 2527 ft 245 kts 149°
2026-05-05 18:01 40.60114 -74.17143 2949 ft 275 kts 117°
2026-05-05 18:01 40.59775 -74.14631 3650 ft 289 kts 88°
2026-05-05 18:01 40.60358 -74.12112 4380 ft 298 kts 59°
2026-05-05 18:01 40.61771 -74.10120 5075 ft 302 kts 30°
2026-05-05 18:02 40.63701 -74.09130 5801 ft 299 kts
2026-05-05 18:02 40.65743 -74.08591 6561 ft 305 kts 18°
2026-05-05 18:02 40.67564 -74.07115 7195 ft 318 kts 43°
2026-05-05 18:02 40.69116 -74.05077 7902 ft 321 kts 40°
2026-05-05 18:03 40.70835 -74.03179 8586 ft 326 kts 36°
2026-05-05 18:03 40.72641 -74.01351 9357 ft 328 kts 33°
2026-05-05 18:03 40.74501 -73.99559 10066 ft 333 kts 32°
2026-05-05 18:03 40.76375 -73.97800 10660 ft 343 kts 31°
2026-05-05 18:04 40.78390 -73.95935 10975 ft 362 kts 31°
2026-05-05 18:04 40.80503 -73.93993 11320 ft 381 kts 31°
2026-05-05 18:04 40.82738 -73.91939 11647 ft 398 kts 31°
2026-05-05 18:04 40.84999 -73.89864 12444 ft 400 kts 31°
2026-05-05 18:05 40.87304 -73.87749 13251 ft 402 kts 30°
2026-05-05 18:05 40.89597 -73.85645 13920 ft 407 kts 30°
2026-05-05 18:05 40.91924 -73.83508 14708 ft 408 kts 30°
2026-05-05 18:05 40.94227 -73.81392 15378 ft 411 kts 31°
2026-05-05 18:06 40.96584 -73.79224 16036 ft 414 kts 31°
2026-05-05 18:06 40.98164 -73.77769 16444 ft 416 kts 31°
2026-05-05 18:06 41.01334 -73.74847 17360 ft 417 kts 31°
2026-05-05 18:06 41.03725 -73.72641 17949 ft 420 kts 31°
2026-05-05 18:07 41.06123 -73.70430 18515 ft 424 kts 31°
2026-05-05 18:07 41.08547 -73.68189 19088 ft 427 kts 31°
2026-05-05 18:07 41.10998 -73.65923 19666 ft 430 kts 31°
2026-05-05 18:07 41.13454 -73.63649 20221 ft 433 kts 31°
2026-05-05 18:08 41.15947 -73.61340 20741 ft 438 kts 32°
2026-05-05 18:08 41.18415 -73.59049 21299 ft 440 kts 32°
2026-05-05 18:08 41.20940 -73.56705 21824 ft 443 kts 32°
2026-05-05 18:08 41.23476 -73.54349 22256 ft 448 kts 32°
2026-05-05 18:09 41.26013 -73.51987 22800 ft 450 kts 32°
2026-05-05 18:09 41.28587 -73.49592 23268 ft 453 kts 32°
2026-05-05 18:09 41.31176 -73.47177 23745 ft 456 kts 32°
2026-05-05 18:09 41.33767 -73.44759 24323 ft 456 kts 32°
2026-05-05 18:10 41.36380 -73.42321 24680 ft 461 kts 32°
2026-05-05 18:10 41.39006 -73.39865 25143 ft 463 kts 32°
2026-05-05 18:10 41.41631 -73.37408 25649 ft 464 kts 32°
2026-05-05 18:10 41.44279 -73.34928 25947 ft 469 kts 32°
2026-05-05 18:11 41.46949 -73.32389 26409 ft 471 kts 35°
2026-05-05 18:11 41.49410 -73.29475 26805 ft 475 kts 42°
2026-05-05 18:11 41.51751 -73.26393 27132 ft 478 kts 42°
2026-05-05 18:11 41.54150 -73.23234 27503 ft 480 kts 42°
2026-05-05 18:12 41.56526 -73.20124 27923 ft 480 kts 40°
2026-05-05 18:12 41.59150 -73.17361 28210 ft 480 kts 30°
2026-05-05 18:12 41.62063 -73.15208 28592 ft 476 kts 20°
2026-05-05 18:12 41.65128 -73.13728 28888 ft 474 kts 11°
2026-05-05 18:13 41.68383 -73.12912 29182 ft 471 kts
2026-05-05 18:13 41.71648 -73.12811 29500 ft 469 kts 353°
2026-05-05 18:13 41.74890 -73.13148 29839 ft 469 kts 351°
2026-05-05 18:13 41.78133 -73.13563 30155 ft 470 kts 351°
2026-05-05 18:14 41.81422 -73.14033 30566 ft 470 kts 350°
2026-05-05 18:14 41.84648 -73.14526 30918 ft 470 kts 350°
2026-05-05 18:14 41.87911 -73.15047 31334 ft 468 kts 350°
2026-05-05 18:14 41.91133 -73.15575 31676 ft 469 kts 349°
2026-05-05 18:15 41.94373 -73.16115 32029 ft 468 kts 349°
2026-05-05 18:15 41.97575 -73.16655 32513 ft 465 kts 349°
2026-05-05 18:15 42.00792 -73.17201 32775 ft 466 kts 349°
2026-05-05 18:16 42.07187 -73.18295 32834 ft 462 kts 349°
2026-05-05 18:16 42.13580 -73.19394 32842 ft 468 kts 349°
2026-05-05 18:17 42.20124 -73.20525 32839 ft 477 kts 349°
2026-05-05 18:17 42.26738 -73.21667 32845 ft 484 kts 349°
2026-05-05 18:18 42.33398 -73.22819 32834 ft 482 kts 348°
2026-05-05 18:18 42.40043 -73.23975 32833 ft 482 kts 349°
2026-05-05 18:19 42.46692 -73.25131 32825 ft 482 kts 348°
2026-05-05 18:19 42.53342 -73.26291 32816 ft 483 kts 348°
2026-05-05 18:20 42.59978 -73.27452 32806 ft 482 kts 348°
2026-05-05 18:20 42.66605 -73.28612 32806 ft 481 kts 348°
2026-05-05 18:21 42.73236 -73.29776 32806 ft 483 kts 348°
2026-05-05 18:21 42.79917 -73.30952 32800 ft 482 kts 348°
2026-05-05 18:22 42.86498 -73.31292 32806 ft 477 kts
2026-05-05 18:22 42.92971 -73.28862 32813 ft 492 kts 20°
2026-05-05 18:23 42.98754 -73.23728 32812 ft 504 kts 39°
2026-05-05 18:23 43.03251 -73.16326 32807 ft 515 kts 57°
2026-05-05 18:24 43.06003 -73.07355 32813 ft 515 kts 75°
2026-05-05 18:24 43.07773 -72.97832 32807 ft 515 kts 73°
2026-05-05 18:25 43.09717 -72.88452 32353 ft 522 kts 73°
2026-05-05 18:25 43.10393 -72.85286 31921 ft 522 kts 73°
2026-05-05 18:25 43.11757 -72.78955 31047 ft 511 kts 73°
2026-05-05 18:25 43.12743 -72.74404 30431 ft 501 kts 73°
2026-05-05 18:26 43.13727 -72.69859 29836 ft 493 kts 73°
2026-05-05 18:26 43.14699 -72.65373 29260 ft 489 kts 73°
2026-05-05 18:26 43.15657 -72.60953 28696 ft 488 kts 73°
2026-05-05 18:26 43.16618 -72.56514 28139 ft 487 kts 73°
2026-05-05 18:27 43.17583 -72.52045 27574 ft 484 kts 74°
2026-05-05 18:27 43.18528 -72.47669 27032 ft 479 kts 74°
2026-05-05 18:27 43.19463 -72.43327 26502 ft 472 kts 74°
2026-05-05 18:27 43.20379 -72.39068 25988 ft 468 kts 74°
2026-05-05 18:28 43.22195 -72.30590 24946 ft 463 kts 75°
2026-05-05 18:28 43.23098 -72.26362 24414 ft 460 kts 75°
2026-05-05 18:28 43.23992 -72.22171 23886 ft 456 kts 75°
2026-05-05 18:29 43.24865 -72.18066 23372 ft 452 kts 76°
2026-05-05 18:29 43.25739 -72.13950 22876 ft 448 kts 75°
2026-05-05 18:29 43.26601 -72.09879 22384 ft 444 kts 75°
2026-05-05 18:29 43.27459 -72.05820 21890 ft 442 kts 75°
2026-05-05 18:30 43.28312 -72.01781 21402 ft 442 kts 75°
2026-05-05 18:30 43.29166 -71.97729 20922 ft 441 kts 75°
2026-05-05 18:30 43.30009 -71.93718 20439 ft 437 kts 75°
2026-05-05 18:30 43.30837 -71.89776 19964 ft 434 kts 75°
2026-05-05 18:31 43.31672 -71.85792 19500 ft 432 kts 75°
2026-05-05 18:31 43.32494 -71.81858 19035 ft 430 kts 75°
2026-05-05 18:31 43.33315 -71.77926 18573 ft 428 kts 75°
2026-05-05 18:31 43.34126 -71.74033 18107 ft 425 kts 74°
2026-05-05 18:32 43.34934 -71.70145 17646 ft 424 kts 74°
2026-05-05 18:32 43.35748 -71.66222 17214 ft 422 kts 74°
2026-05-05 18:32 43.36541 -71.62396 16795 ft 419 kts 74°
2026-05-05 18:32 43.37333 -71.58561 16359 ft 419 kts 74°
2026-05-05 18:33 43.38123 -71.54735 15937 ft 416 kts 74°
2026-05-05 18:33 43.38902 -71.50951 15502 ft 414 kts 74°
2026-05-05 18:33 43.39684 -71.47150 15062 ft 410 kts 74°
2026-05-05 18:33 43.40453 -71.43402 14621 ft 409 kts 74°
2026-05-05 18:34 43.41221 -71.39651 14183 ft 407 kts 73°
2026-05-05 18:34 43.41982 -71.35930 13756 ft 406 kts 74°
2026-05-05 18:34 43.42747 -71.32182 13292 ft 405 kts 74°
2026-05-05 18:34 43.43496 -71.28507 12822 ft 402 kts 75°
2026-05-05 18:35 43.44248 -71.24809 12346 ft 399 kts 75°
2026-05-05 18:35 43.44986 -71.21179 11912 ft 394 kts 75°
2026-05-05 18:35 43.45720 -71.17551 11443 ft 392 kts 75°
2026-05-05 18:35 43.46453 -71.13976 11015 ft 390 kts 73°
2026-05-05 18:36 43.47377 -71.10476 10401 ft 392 kts 69°
2026-05-05 18:36 43.48331 -71.06977 9794 ft 391 kts 70°
2026-05-05 18:36 43.49278 -71.03482 9293 ft 387 kts 70°
2026-05-05 18:36 43.50204 -71.00051 8985 ft 377 kts 70°
2026-05-05 18:37 43.51105 -70.96697 8812 ft 370 kts 70°
2026-05-05 18:37 43.51993 -70.93379 8647 ft 375 kts 70°
2026-05-05 18:37 43.52907 -70.89966 8488 ft 377 kts 71°
2026-05-05 18:37 43.53822 -70.86603 8343 ft 374 kts 68°
2026-05-05 18:38 43.54993 -70.83418 8023 ft 379 kts 61°
2026-05-05 18:38 43.56249 -70.80217 7544 ft 378 kts 62°
2026-05-05 18:38 43.57488 -70.77058 7111 ft 373 kts 62°
2026-05-05 18:38 43.58681 -70.74013 6892 ft 350 kts 62°
2026-05-05 18:39 43.59802 -70.71150 6359 ft 333 kts 63°
2026-05-05 18:39 43.60871 -70.68412 5972 ft 315 kts 63°
2026-05-05 18:39 43.61880 -70.65826 5652 ft 295 kts 63°
2026-05-05 18:39 43.62809 -70.63448 5174 ft 273 kts 63°
2026-05-05 18:40 43.63635 -70.61199 4648 ft 255 kts 69°
2026-05-05 18:40 43.64315 -70.59052 4254 ft 236 kts 70°
2026-05-05 18:40 43.64953 -70.57063 4032 ft 217 kts 70°
2026-05-05 18:40 43.65548 -70.55215 3798 ft 206 kts 70°
2026-05-05 18:41 43.65905 -70.53432 3567 ft 181 kts 101°
2026-05-05 18:41 43.65825 -70.51782 3291 ft 171 kts 104°
2026-05-05 18:41 43.65739 -70.50135 2918 ft 168 kts 104°
2026-05-05 18:41 43.65657 -70.48596 2602 ft 163 kts 105°
2026-05-05 18:42 43.65554 -70.47041 2208 ft 162 kts 105°
2026-05-05 18:42 43.65459 -70.45528 1955 ft 154 kts 105°
2026-05-05 18:42 43.65362 -70.44052 1747 ft 156 kts 106°
2026-05-05 18:42 43.65260 -70.42548 1534 ft 159 kts 105°
2026-05-05 18:43 43.65163 -70.41048 1316 ft 156 kts 106°
2026-05-05 18:43 43.65065 -70.39584 1092 ft 152 kts 106°
2026-05-05 18:43 43.64965 -70.38127 911 ft 148 kts 103°
2026-05-05 18:43 43.64870 -70.36714 702 ft 147 kts 106°
2026-05-05 18:44 43.64766 -70.35317 490 ft 146 kts 103°
2026-05-05 18:44 43.64678 -70.33929 306 ft 145 kts 104°
2026-05-05 18:44 43.64585 -70.32561 103 ft 142 kts 107°
2026-05-05 18:44 43.64509 -70.31362 70 ft 96 kts 95°
2026-05-05 18:45 43.64456 -70.30682 54 ft 48 kts 96°
2026-05-05 18:45 43.64436 -70.30391 48 ft 17 kts 96°
2026-05-05 18:45 43.64459 -70.30330 47 ft 6 kts
2026-05-05 18:45 43.64508 -70.30341 47 ft 7 kts 350°
2026-05-05 18:46 43.64558 -70.30380 46 ft 7 kts 295°
2026-05-05 18:46 43.64556 -70.30431 48 ft 4 kts 258°
2026-05-05 18:46 43.64554 -70.30462 49 ft 4 kts 270°
2026-05-05 18:46 43.64556 -70.30521 51 ft 5 kts 274°
2026-05-05 18:47 43.64558 -70.30570 52 ft 4 kts 272°
2026-05-05 18:47 43.64561 -70.30623 53 ft 7 kts 276°
2026-05-05 18:47 43.64568 -70.30714 56 ft 11 kts 275°
2026-05-05 18:47 43.64574 -70.30808 59 ft 9 kts 278°
2026-05-05 18:48 43.64584 -70.30911 62 ft 10 kts 276°
2026-05-05 18:48 43.64613 -70.30956 63 ft 6 kts 356°
2026-05-05 18:48 43.64648 -70.30953 63 ft 2 kts
2026-05-05 18:48 43.64661 -70.30952 63 ft 0 kts
2026-05-05 18:49 43.64663 -70.30952 63 ft 0 kts